Regional Weather Roundup
Issued by NWS

Home | Current Version | Previous Version | Graphics & Text | Print | Product List | Glossary On
Versions: 1 2 3 4 5 6 7 8 9 10 11 12 13 14 15 16 17 18 19 20 21 22 23 24 25 26 27 28 29 30 31 32 33 34 35 36 37 38 39 40 41 42 43 44 45 46 47 48 49 50
000
ASUS43 KDTX 240610
RWRMI
MICHIGAN HOURLY REGIONAL WEATHER ROUNDUP
NATIONAL WEATHER SERVICE DETROIT/PONTIAC MI
200 AM EDT THU APR 24 2014

NOTE: "FAIR" INDICATES FEW OR NO CLOUDS BELOW 12,000 FEET WITH NO
SIGNIFICANT WEATHER AND/OR OBSTRUCTION TO VISIBILITY.

MIZ047>049-052>055-059>063-066>070-074>076-081>083-240700-
SOUTHEAST LOWER MICHIGAN

CITY           SKY/WX    TMP DP  RH WIND       PRES   REMARKS
ADRIAN           N/A     46  31  55 S5        30.11S
6HR MIN TEMP:  46; 6HR MAX TEMP:  52;

ALMA             N/A     38  26  61 NE8       30.11S
ANN ARBOR        N/A     44  29  55 E6        30.11S
BAD AXE          N/A     27  24  86 CALM      30.14S
6HR MIN TEMP:  27; 6HR MAX TEMP:  41;

DETROIT CITY     N/A     40  18  41 E5        30.14F
6HR MIN TEMP:  40; 6HR MAX TEMP:  51;

DETROIT        CLOUDY    43  24  47 E6        30.13S
6HR MIN TEMP:  43; 6HR MAX TEMP:  52;

FLINT            N/A     39  21  48 SE6       30.12F
6HR MIN TEMP:  39; 6HR MAX TEMP:  51;

GROSSE ILE       N/A     43  18  36 E6        30.12S
HILLSDALE        N/A     47  28  47 SE7       30.08F
6HR MIN TEMP:  47; 6HR MAX TEMP:  51;

HOWELL           N/A     42  24  47 SE9       30.10S
6HR MIN TEMP:  41; 6HR MAX TEMP:  49;


CITY           SKY/WX    TMP DP  RH WIND       PRES   REMARKS
JACKSON          N/A     45  24  43 SE7       30.09S
6HR MIN TEMP:  45; 6HR MAX TEMP:  51;

LAMBERTVILLE     N/A     46  27  46 SE5       30.11S
LANSING          N/A     43  32  65 CALM      30.10S
6HR MIN TEMP:  43; 6HR MAX TEMP:  52;

LAPEER         NOT AVBL
MASON            N/A     42  27  54 CALM      30.09S
MONROE           N/A     45  34  65 E5        30.10S
MT. CLEMENS      N/A     34  18  53 E2        30.13S
6HR MIN TEMP:  34; 6HR MAX TEMP:  44;

PONTIAC          N/A     39  17  41 SE5       30.12S
6HR MIN TEMP:  39; 6HR MAX TEMP:  49;

PORT HOPE        N/A     30  22  72 CALM      30.11F
6HR MIN TEMP:  30; 6HR MAX TEMP:  40;

PORT HURON       N/A     28  27  93 CALM      30.14F
TRI CITIES       N/A     39  26  59 E6        30.13S
6HR MIN TEMP:  39; 6HR MAX TEMP:  50;

YPSILANTI        N/A     45  27  49 E8        30.12S
6HR MIN TEMP:  41; 6HR MAX TEMP:  51;

$$
MIZ043>046-050>051-056>058-064>065-071>073-077>080-240700-
SOUTHWEST LOWER MICHIGAN

CITY           SKY/WX    TMP DP  RH WIND       PRES   REMARKS
BATTLE CREEK   CLOUDY    48  29  47 E5        30.08F
6HR MIN TEMP:  47; 6HR MAX TEMP:  54;

BENTON HARBOR  CLOUDY    43  30  60 E5        30.06S
6HR MIN TEMP:  38; 6HR MAX TEMP:  43;

BIG RAPIDS       N/A     40  22  49 CALM      30.11R
6HR MIN TEMP:  38; 6HR MAX TEMP:  51;

COLDWATER      CLOUDY    48  18  30 SE8       30.08S
6HR MIN TEMP:  47; 6HR MAX TEMP:  52;

HOLLAND        CLOUDY    46  29  51 E5        30.09R
6HR MIN TEMP:  44; 6HR MAX TEMP:  46;

GRAND RAPIDS     N/A     45  29  53 E5        30.09S
6HR MIN TEMP:  45; 6HR MAX TEMP:  50;

KALAMAZOO      CLOUDY    47  31  53 E3        30.08S
6HR MIN TEMP:  47; 6HR MAX TEMP:  50;

MARSHALL       MOCLDY    45  30  55 CALM      30.08S
MUSKEGON         N/A     45  24  43 CALM      30.10R
6HR MIN TEMP:  42; 6HR MAX TEMP:  46;

$$
MIZ016>042-240700-
NORTHERN LOWER MICHIGAN

CITY           SKY/WX    TMP DP  RH WIND       PRES   REMARKS
ALPENA           N/A     28  24  85 CALM      30.14S
6HR MIN TEMP:  27; 6HR MAX TEMP:  45;

BEAVER ISLAND    N/A     30  25  80 E5        30.14S
6HR MIN TEMP:  29; 6HR MAX TEMP:  37;

BELLAIRE         N/A     31  26  84 CALM      30.14R
6HR MIN TEMP:  30; 6HR MAX TEMP:  45;

CADILLAC         N/A     34  21  60 NE6       30.10S
CHARLEVOIX       N/A     32  23  70 E5        30.17S
6HR MIN TEMP:  31; 6HR MAX TEMP:  39;

FRANKFORT        N/A     40  18  42 E3        30.12R
GAYLORD          N/A     30  21  69 CALM      30.12S
6HR MIN TEMP:  30; 6HR MAX TEMP:  44;

GRAYLING         N/A     28  21  74 W3        30.13S
6HR MIN TEMP:  26; 6HR MAX TEMP:  46;

HARBOR SPRINGS   N/A     29  25  82 CALM      30.14S
HOUGHTON LAKE    N/A     31  25  78 CALM      30.12S
6HR MIN TEMP:  31; 6HR MAX TEMP:  48;

MANISTEE         N/A     37  18  44 E5        30.12R
OSCODA           N/A     28  20  71 CALM      30.14S
PELLSTON         N/A     28  21  75 CALM      30.15S
6HR MIN TEMP:  27; 6HR MAX TEMP:  45;

TRAVERSE CITY    N/A     33  27  78 CALM      30.12S
6HR MIN TEMP:  32; 6HR MAX TEMP:  45;

$$
MIZ007>008-015-240700-
EASTERN UPPER MICHIGAN

CITY           SKY/WX    TMP DP  RH WIND       PRES   REMARKS
KINROSS          N/A     28  27  93 CALM      30.13S
6HR MIN TEMP:  28; 6HR MAX TEMP:  39;

MACKINAC ISLAN   N/A     30  24  78 N5        30.14S
6HR MIN TEMP:  30; 6HR MAX TEMP:  37;

NEWBERRY         N/A     31  27  84 CALM      30.13S
6HR MIN TEMP:  31; 6HR MAX TEMP:  41;

S. S. MARIE      N/A     31  24  75 CALM      30.13S
6HR MIN TEMP:  31; 6HR MAX TEMP:  40;

$$
MIZ004>006-011>014-085-240700-
CENTRAL UPPER MICHIGAN

CITY           SKY/WX    TMP DP  RH WIND       PRES   REMARKS
MANISTIQUE       N/A     28  27  93 N3        30.13R
ESCANABA         N/A     30  25  80 CALM      30.13R
6HR MIN TEMP:  30; 6HR MAX TEMP:  39;

MENOMINEE        N/A     36  19  51 NE5       30.11F
6HR MIN TEMP:  36; 6HR MAX TEMP:  43;

SAWYER-GWINN     N/A     35  21  57 S3        30.11R
6HR MIN TEMP:  35; 6HR MAX TEMP:  45;

$$
MIZ001>003-009>011-084-240700-
WESTERN UPPER MICHIGAN

CITY           SKY/WX    TMP DP  RH WIND       PRES   REMARKS
IRON MOUNTAIN    N/A     38  14  37 CALM      30.09S
6HR MIN TEMP:  38; 6HR MAX TEMP:  50;

HOUGHTON         N/A     37  19  48 E3        30.08S
6HR MIN TEMP:  35; 6HR MAX TEMP:  39;

COPPER HARBOR    N/A     38  20  48 SW10G16   30.08F
6HR MIN TEMP:  36; 6HR MAX TEMP:  41;

IRONWOOD       CLOUDY    46  23  39 S6        30.01S
6HR MIN TEMP:  46; 6HR MAX TEMP:  54;

$$

ABBREVIATIONS USED IN REMARKS
   TC - TEMPERATURE IN CELSIUS
  WCI - WIND CHILL INDEX
   HX - HEAT INDEX
  VSB - VISIBILITY




USA.gov is the U.S. government's official web portal to all federal, state and local government web resources and services.